When you browse on this site, cookies collect data to enhance your experience and personalize the content and advertising you see.
Visit our Privacy Policy to learn more. By continuing to use the site, you agree to this use of cookies and data.

Stündliche Wetter Etschmiadsin

Heute, 18 September, Freitag

Zeit Temperatur Niederschläge Wind Luftdruck Luftfeuchtigkeit
00:00 +21°C° 0.2 mm 2 m/S 689 mmHg 60%
01:00 +21°C° 0 mm 1 m/S 689 mmHg 62%
02:00 +21°C° 0 mm 1 m/S 688 mmHg 64%
03:00 +20°C° 0 mm 1 m/S 688 mmHg 68%
04:00 +20°C° 0 mm 1 m/S 688 mmHg 69%
05:00 +20°C° 0 mm 1 m/S 687 mmHg 70%
06:00 +19°C° 0 mm 1 m/S 687 mmHg 71%
07:00 +22°C° 0 mm 1 m/S 687 mmHg 62%
08:00 +24°C° 0 mm 1 m/S 687 mmHg 53%
09:00 +27°C° 0 mm 1 m/S 688 mmHg 45%
10:00 +29°C° 0 mm 1 m/S 688 mmHg 39%
11:00 +30°C° 0 mm 2 m/S 688 mmHg 34%
12:00 +32°C° 0 mm 2 m/S 688 mmHg 28%
13:00 +34°C° 0 mm 2 m/S 687 mmHg 24%
14:00 +35°C° 0 mm 2 m/S 687 mmHg 20%
15:00 +35°C° 0 mm 2 m/S 687 mmHg 16%
16:00 +32°C° 0 mm 2 m/S 687 mmHg 19%
17:00 +31°C° 0 mm 2 m/S 686 mmHg 21%
18:00 +29°C° 0 mm 2 m/S 686 mmHg 23%
19:00 +28°C° 0 mm 2 m/S 686 mmHg 26%
20:00 +26°C° 0 mm 3 m/S 686 mmHg 29%
21:00 +25°C° 0 mm 3 m/S 686 mmHg 31%
22:00 +24°C° 0 mm 3 m/S 686 mmHg 36%
23:00 +22°C° 0 mm 3 m/S 686 mmHg 40%

Morgen, 19 September, Samstag

Zeit Temperatur Niederschläge Wind Luftdruck Luftfeuchtigkeit
00:00 +21°C° 0 mm 2 m/S 686 mmHg 44%
01:00 +21°C° 0 mm 2 m/S 686 mmHg 46%
02:00 +21°C° 0 mm 2 m/S 685 mmHg 47%
03:00 +20°C° 0 mm 2 m/S 685 mmHg 48%
04:00 +20°C° 0 mm 2 m/S 685 mmHg 48%
05:00 +19°C° 0 mm 2 m/S 685 mmHg 49%
06:00 +19°C° 0 mm 2 m/S 685 mmHg 49%
07:00 +23°C° 0 mm 2 m/S 685 mmHg 41%
08:00 +26°C° 0 mm 2 m/S 686 mmHg 34%
09:00 +28°C° 0 mm 2 m/S 686 mmHg 27%
10:00 +30°C° 0 mm 3 m/S 686 mmHg 23%
11:00 +33°C° 0 mm 3 m/S 686 mmHg 20%
12:00 +34°C° 0 mm 4 m/S 686 mmHg 17%
13:00 +34°C° 0 mm 4 m/S 686 mmHg 17%
14:00 +35°C° 0 mm 5 m/S 686 mmHg 16%
15:00 +35°C° 0 mm 5 m/S 686 mmHg 16%
16:00 +33°C° 0 mm 5 m/S 685 mmHg 21%
17:00 +30°C° 0 mm 4 m/S 685 mmHg 27%
18:00 +27°C° 0 mm 4 m/S 685 mmHg 32%
19:00 +26°C° 0 mm 4 m/S 685 mmHg 35%
20:00 +25°C° 0 mm 4 m/S 686 mmHg 39%
21:00 +22°C° 0 mm 4 m/S 686 mmHg 42%
22:00 +22°C° 0 mm 3 m/S 686 mmHg 43%
23:00 +21°C° 0 mm 3 m/S 686 mmHg 45%

übermorgen, 20 September, Sonntag

Zeit Temperatur Niederschläge Wind Luftdruck Luftfeuchtigkeit
00:00 +20°C° 0 mm 2 m/S 686 mmHg 46%
01:00 +20°C° 0 mm 2 m/S 686 mmHg 48%
02:00 +19°C° 0 mm 2 m/S 686 mmHg 49%
03:00 +19°C° 0 mm 2 m/S 686 mmHg 51%
04:00 +18°C° 0 mm 2 m/S 686 mmHg 53%
05:00 +18°C° 0 mm 2 m/S 686 mmHg 55%
06:00 +17°C° 0 mm 2 m/S 686 mmHg 57%
07:00 +19°C° 0 mm 2 m/S 687 mmHg 50%
08:00 +23°C° 0 mm 2 m/S 687 mmHg 44%
09:00 +25°C° 0 mm 2 m/S 688 mmHg 38%
10:00 +26°C° 0 mm 2 m/S 687 mmHg 34%
11:00 +28°C° 0 mm 2 m/S 687 mmHg 31%
12:00 +29°C° 0 mm 2 m/S 687 mmHg 28%
13:00 +30°C° 0 mm 2 m/S 687 mmHg 26%
14:00 +30°C° 0 mm 2 m/S 686 mmHg 25%
15:00 +31°C° 0 mm 1 m/S 686 mmHg 23%
16:00 +29°C° 0 mm 2 m/S 686 mmHg 28%
17:00 +28°C° 0 mm 2 m/S 686 mmHg 32%
18:00 +26°C° 0 mm 3 m/S 685 mmHg 37%
19:00 +25°C° 0 mm 3 m/S 686 mmHg 41%
20:00 +23°C° 0 mm 4 m/S 686 mmHg 44%
21:00 +21°C° 0 mm 4 m/S 687 mmHg 48%
22:00 +21°C° 0 mm 3 m/S 687 mmHg 50%
23:00 +20°C° 0 mm 3 m/S 687 mmHg 53%

21 September, Montag

Zeit Temperatur Niederschläge Wind Luftdruck Luftfeuchtigkeit
00:00 +19°C° 0 mm 2 m/S 687 mmHg 55%
01:00 +19°C° 0 mm 2 m/S 687 mmHg 56%
02:00 +18°C° 0 mm 2 m/S 687 mmHg 58%
03:00 +18°C° 0 mm 2 m/S 687 mmHg 59%
04:00 +17°C° 0 mm 2 m/S 687 mmHg 62%
05:00 +17°C° 0 mm 2 m/S 687 mmHg 64%
06:00 +16°C° 0 mm 1 m/S 687 mmHg 66%
07:00 +20°C° 0 mm 1 m/S 688 mmHg 59%
08:00 +22°C° 0 mm 1 m/S 688 mmHg 51%
09:00 +24°C° 0 mm 1 m/S 689 mmHg 44%
10:00 +26°C° 0.1 mm 2 m/S 689 mmHg 40%
11:00 +27°C° 0.1 mm 2 m/S 689 mmHg 37%
12:00 +29°C° 0.1 mm 3 m/S 689 mmHg 33%
13:00 +29°C° 0 mm 3 m/S 688 mmHg 32%
14:00 +30°C° 0 mm 4 m/S 688 mmHg 31%
15:00 +32°C° 0 mm 4 m/S 688 mmHg 29%
16:00 +29°C° 0 mm 4 m/S 688 mmHg 35%
17:00 +27°C° 0 mm 5 m/S 688 mmHg 40%
18:00 +25°C° 0 mm 5 m/S 688 mmHg 46%
19:00 +23°C° 0 mm 4 m/S 688 mmHg 49%
20:00 +22°C° 0 mm 4 m/S 688 mmHg 52%
21:00 +21°C° 0 mm 4 m/S 688 mmHg 55%
22:00 +20°C° 0.1 mm 3 m/S 688 mmHg 58%
23:00 +19°C° 0.1 mm 2 m/S 688 mmHg 60%

22 September, Dienstag

Zeit Temperatur Niederschläge Wind Luftdruck Luftfeuchtigkeit
00:00 +20°C° 0.1 mm 1 m/S 687 mmHg 63%
01:00 +19°C° 0 mm 1 m/S 687 mmHg 65%
02:00 +19°C° 0 mm 1 m/S 687 mmHg 66%
03:00 +17°C° 0 mm 2 m/S 687 mmHg 68%
04:00 +18°C° 0 mm 1 m/S 687 mmHg 69%
05:00 +18°C° 0 mm 1 m/S 687 mmHg 71%
06:00 +16°C° 0 mm 1 m/S 687 mmHg 72%
07:00 +20°C° 0 mm 1 m/S 687 mmHg 64%
08:00 +22°C° 0 mm 1 m/S 687 mmHg 55%
09:00 +24°C° 0 mm 1 m/S 688 mmHg 46%
10:00 +26°C° 0 mm 2 m/S 688 mmHg 41%
11:00 +28°C° 0 mm 2 m/S 688 mmHg 35%
12:00 +30°C° 0 mm 2 m/S 687 mmHg 30%
13:00 +30°C° 0 mm 2 m/S 687 mmHg 28%
14:00 +31°C° 0 mm 2 m/S 687 mmHg 25%
15:00 +32°C° 0 mm 2 m/S 687 mmHg 23%
16:00 +31°C° 0 mm 2 m/S 686 mmHg 26%
17:00 +29°C° 0 mm 2 m/S 686 mmHg 28%
18:00 +28°C° 0 mm 2 m/S 686 mmHg 31%
19:00 +27°C° 0.1 mm 3 m/S 686 mmHg 36%
20:00 +25°C° 0.1 mm 4 m/S 687 mmHg 41%
21:00 +23°C° 0.1 mm 5 m/S 687 mmHg 45%
22:00 +22°C° 0.4 mm 4 m/S 687 mmHg 52%
23:00 +21°C° 0.4 mm 4 m/S 687 mmHg 58%

23 September, Mittwoch

Zeit Temperatur Niederschläge Wind Luftdruck Luftfeuchtigkeit
00:00 +19°C° 0.4 mm 4 m/S 687 mmHg 65%
01:00 +19°C° 0.4 mm 4 m/S 687 mmHg 67%
02:00 +19°C° 0.4 mm 3 m/S 687 mmHg 69%
03:00 +18°C° 0.4 mm 3 m/S 686 mmHg 70%
04:00 +18°C° 0.4 mm 3 m/S 687 mmHg 72%
05:00 +18°C° 0.4 mm 2 m/S 687 mmHg 73%
06:00 +17°C° 0.4 mm 2 m/S 687 mmHg 74%
07:00 +19°C° 0.1 mm 2 m/S 687 mmHg 66%
08:00 +21°C° 0.1 mm 2 m/S 688 mmHg 58%
09:00 +24°C° 0.1 mm 1 m/S 688 mmHg 50%
10:00 +26°C° 0 mm 1 m/S 688 mmHg 45%
11:00 +27°C° 0 mm 2 m/S 688 mmHg 41%
12:00 +28°C° 0 mm 2 m/S 688 mmHg 37%
13:00 +29°C° 0 mm 3 m/S 688 mmHg 36%
14:00 +29°C° 0 mm 4 m/S 688 mmHg 35%
15:00 +30°C° 0 mm 4 m/S 688 mmHg 34%
16:00 +28°C° 0 mm 5 m/S 687 mmHg 38%
17:00 +26°C° 0 mm 5 m/S 687 mmHg 43%
18:00 +23°C° 0 mm 5 m/S 687 mmHg 47%
19:00 +23°C° 0 mm 4 m/S 687 mmHg 50%
20:00 +22°C° 0 mm 4 m/S 687 mmHg 53%
21:00 +21°C° 0 mm 3 m/S 687 mmHg 55%
22:00 +20°C° 0 mm 2 m/S 687 mmHg 58%
23:00 +19°C° 0 mm 2 m/S 687 mmHg 60%
Mehr zeigen